[[{"header":{"parameterUnit":"m.s-1","parameterCategory":1,"la1":30.2992,"la2":30.254,"lo1":-89.0895,"lo2":-89.0443,"dy":0.0025,"dx":0.0025,"nx":19,"ny":19,"refTime":"2026-03-14T03:00:00:Z","depth":0,"parameterNumber":2,"parameterNumberName":"U-component_of_WINDS"},"data":[0,0,0,-2.1066,-2.1067,-2.1104,-2.1104,-2.1154,-2.1155,0,0,0,0,0,0,0,0,0,0,0,-2.1057,-2.1057,-2.1066,-2.1067,-2.1103,-2.1104,-2.1154,-2.1155,0,0,0,0,0,0,0,0,0,0,0,-2.1057,-2.1057,-2.1058,-2.1067,-2.1103,-2.1104,-2.1154,-2.1125,0,0,0,0,0,0,0,0,0,0,-2.1089,-2.1082,-2.1057,-2.1058,-2.1067,-2.1103,-2.1104,-2.1124,-2.1127,-2.1139,0,-2.115,0,-2.1153,-2.1158,-2.1158,0,0,0,-2.1065,-2.1079,-2.1088,-2.1058,-2.1068,-2.1103,-2.1087,-2.1125,-2.1129,-2.1143,-2.115,-2.1152,-2.1154,-2.1158,-2.1159,-2.1233,-2.1233,0,0,-2.1063,-2.1064,-2.1085,-2.109,-2.1084,-2.1085,-2.1088,-2.1127,-2.1135,-2.1151,-2.1153,-2.1155,-2.1159,-2.1159,-2.1233,-2.1233,0,0,0,-2.1059,-2.1063,-2.107,-2.1088,-2.1094,-2.1086,-2.1089,-2.1134,-2.1136,-2.1154,-2.1155,-2.1159,-2.116,-2.1232,-2.1233,-2.1254,0,0,0,-2.1057,-2.106,-2.1069,-2.107,-2.1094,-2.1114,-2.1095,-2.1133,-2.1138,-2.1155,-2.1159,-2.116,-2.1232,-2.1233,-2.1252,-2.1263,0,0,0,-2.1054,-2.106,-2.1065,-2.107,-2.1086,-2.1114,-2.1118,-2.1134,-2.1139,-2.1158,-2.116,-2.1231,-2.1232,-2.1251,-2.1261,-2.1283,0,0,0,-2.105,-2.1083,-2.1066,-2.1103,-2.1086,-2.1127,-2.1118,-2.1148,-2.1168,-2.1159,-2.1232,-2.1233,-2.125,-2.1259,-2.1281,-2.1301,-2.131,0,0,-2.1092,-2.1088,-2.111,-2.1096,-2.114,-2.1121,-2.1168,-2.1185,-2.1186,-2.1218,-2.1219,-2.1253,-2.1261,-2.1283,-2.1358,-2.1365,0,0,0,-2.1124,-2.1139,-2.1151,-2.117,-2.1184,-2.1197,-2.1207,-2.1214,-2.124,-2.1203,-2.1267,-2.1272,-2.1285,-2.1294,-2.13,-2.1311,-2.1237,-2.1237,-2.1237,-2.1183,-2.1184,-2.122,-2.1226,-2.1244,-2.1255,-2.127,-2.128,-2.1275,-2.129,-2.1299,-2.1345,-2.1356,-2.136,-2.1372,-2.131,-2.131,-2.131,-2.1311,-2.1244,-2.1266,-2.126,-2.1293,-2.1294,-2.1322,-2.1334,-2.133,-2.1356,-2.1338,-2.1349,-2.1329,-2.1367,-2.1378,-2.1312,-2.1312,-2.1312,-2.1311,-2.1311,-2.1282,-2.1293,-2.1301,-2.1329,-2.1351,-2.1356,-2.1382,-2.1382,-2.1382,-2.1393,-2.1403,-2.1402,-2.1401,-2.1398,-2.1398,-2.1398,-2.1398,-2.1398,-2.1399,-2.1318,-2.1327,-2.1348,-2.1368,-2.138,-2.1397,-2.141,-2.1422,-2.1436,-2.1434,-2.1434,-2.1428,-2.1372,-2.1357,-2.1401,-2.14,-2.14,-2.14,-2.14,-2.1378,-2.1365,-2.1398,-2.1411,-2.1435,-2.1457,-2.1457,-2.1484,-2.1494,-2.1507,-2.1499,-2.1458,-2.1453,-2.1449,-2.1437,-2.1499,-2.1499,-2.1499,-2.1499,-2.1409,-2.1408,-2.1443,-2.1464,-2.1485,-2.1489,-2.1528,-2.1539,-2.1548,-2.1555,-2.1546,-2.153,-2.1526,-2.1524,-2.1518,-2.1507,-2.1585,-2.1585,-2.1585,-2.1446,-2.1447,-2.148,-2.1489,-2.1508,-2.1524,-2.1561,-2.1586,-2.1593,-2.1589,-2.156,-2.1556,-2.1531,-2.1523,-2.1516,-2.1506,-2.1486,0,0]},{"header":{"parameterUnit":"m.s-1","parameterCategory":1,"la1":30.2992,"la2":30.254,"lo1":-89.0895,"lo2":-89.0443,"dy":0.0025,"dx":0.0025,"nx":19,"ny":19,"refTime":"2026-03-14T03:00:00:Z","depth":0,"parameterNumber":3,"parameterNumberName":"V-component_of_WINDS"},"data":[0,0,0,1.8044,1.8045,1.8098,1.8099,1.8154,1.8154,0,0,0,0,0,0,0,0,0,0,0,1.8021,1.8022,1.8044,1.8045,1.8098,1.8099,1.8154,1.8154,0,0,0,0,0,0,0,0,0,0,0,1.8021,1.8022,1.8022,1.8046,1.8098,1.8099,1.8154,1.8118,0,0,0,0,0,0,0,0,0,0,1.8068,1.804,1.8021,1.8022,1.8046,1.8098,1.8099,1.8116,1.812,1.8125,0,1.8127,0,1.8142,1.8157,1.8157,0,0,0,1.805,1.8037,1.8058,1.8022,1.8046,1.8098,1.8076,1.8119,1.8123,1.8129,1.8128,1.813,1.8143,1.8157,1.8158,1.8169,1.8169,0,0,1.8047,1.8027,1.8055,1.8061,1.8053,1.8074,1.8077,1.8121,1.8118,1.8128,1.8132,1.8143,1.8158,1.8158,1.8169,1.8169,0,0,0,1.8036,1.8024,1.8045,1.8058,1.8069,1.8076,1.8079,1.8116,1.8125,1.8133,1.8144,1.8158,1.8159,1.8169,1.8169,1.814,0,0,0,1.8034,1.8018,1.8043,1.8031,1.8068,1.8093,1.8073,1.8122,1.8127,1.8144,1.8158,1.8159,1.817,1.8169,1.8141,1.8129,0,0,0,1.802,1.8016,1.8022,1.803,1.8052,1.8093,1.8104,1.8123,1.8134,1.8157,1.8159,1.817,1.8169,1.8142,1.8131,1.8126,0,0,0,1.7999,1.7994,1.8021,1.802,1.8051,1.8075,1.8104,1.8123,1.8139,1.8158,1.817,1.8169,1.8143,1.8132,1.8127,1.8117,1.8112,0,0,1.7981,1.7991,1.7992,1.8018,1.8032,1.8069,1.8079,1.8113,1.8133,1.8156,1.8156,1.8141,1.8131,1.8126,1.8089,1.8084,0,0,0,1.7979,1.798,1.7988,1.8004,1.8031,1.8053,1.8089,1.8102,1.8122,1.8141,1.8139,1.8134,1.8132,1.8128,1.8124,1.8123,1.8167,1.8167,1.8167,1.7922,1.7951,1.7954,1.7989,1.8004,1.8042,1.8057,1.8081,1.8103,1.8103,1.8109,1.8083,1.8078,1.8075,1.8074,1.8107,1.8107,1.8107,1.8107,1.7897,1.7902,1.7935,1.795,1.798,1.7993,1.803,1.8046,1.8062,1.808,1.808,1.8095,1.8069,1.8069,1.8105,1.8105,1.8105,1.8106,1.8106,1.7862,1.7869,1.7887,1.7913,1.7931,1.7967,1.7982,1.8008,1.8034,1.8033,1.8043,1.8043,1.8046,1.8036,1.8036,1.8036,1.8036,1.8036,1.8036,1.7817,1.7838,1.7848,1.7878,1.7892,1.7915,1.7954,1.7969,1.7992,1.801,1.8011,1.8033,1.8062,1.8067,1.8035,1.8035,1.8035,1.8035,1.8035,1.7779,1.7793,1.7807,1.7822,1.786,1.7876,1.7911,1.794,1.7956,1.7962,1.7986,1.8003,1.8015,1.8018,1.8023,1.7981,1.7981,1.7981,1.7981,1.7748,1.7758,1.7779,1.7801,1.7826,1.786,1.7875,1.7906,1.7941,1.7952,1.7963,1.7973,1.7975,1.7985,1.7989,1.7994,1.7945,1.7945,1.7945,1.7726,1.7739,1.7747,1.7782,1.7815,1.7842,1.7857,1.7881,1.7923,1.7944,1.7962,1.7964,1.7979,1.7983,1.8002,1.8008,1.8018,0,0]}]]